Weather History for Monticello, IA

Change the Weather History Date:

Monday, March 25, 2013

  Actual Average Record
Temperature  
Mean Temperature 32 °F -  
Max Temperature 37 °F 49 °F 77 °F (2007)
Min Temperature 28 °F 31 °F 14 °F (2001)
Degree Days  
Heating Degree Days 32    
Moisture  
Dew Point 25 °F    
Average Humidity 72    
Maximum Humidity 80    
Minimum Humidity 60    
Precipitation  
Precipitation 0.00 in - - ()
Sea Level Pressure  
Sea Level Pressure 30.00 in    
Wind  
Wind Speed 12 mph (NNW)    
Max Wind Speed 18 mph    
Max Gust Speed 24 mph    
Visibility 10 miles    
Events      
Averages and records for this station are not official NWS values.
T = Trace of Precipitation, MM = Missing Value Source: NWS Daily Summary

Daily Weather History Graph

Daily Weather History Graph

Search for Another Location

Airport:

Trip Planner

Search our weather history database for the weather conditions in past years. The results will help you decide how hot, cold, wet, or windy it might be!

Date:

Astronomy

Mar. 25, 2013 Rise Set
Actual Time 6:58 AM CDT 7:22 PM CDT
Civil Twilight 6:30 AM CDT 7:50 PM CDT
Nautical Twilight 5:57 AM CDT 8:24 PM CDT
Astronomical Twilight 5:23 AM CDT 8:58 PM CDT
Moon 5:53 PM CDT (3/25) 5:43 AM CDT (3/25)
Length of Visible Light 13h 20m
Length of Day
12h 24m
Waxing Gibbous, 96% of the Moon is Illuminated
Mar 25
Waxing Gibbous
Mar 27
Full
Apr 2
Last Quarter
Apr 10
New
Apr 18
First Quarter

Hourly Weather History & Observations

Time (CDT) Temp. Windchill Dew Point Humidity Pressure Visibility Wind Dir Wind Speed Gust Speed Precip Events Conditions
12:15 AM 30.2 °F 20.8 °F 24.8 °F 80% 29.87 in 10.0 mi NNW 11.5 mph - N/A   Overcast
12:35 AM 30.2 °F 21.3 °F 24.8 °F 80% 29.87 in 10.0 mi NNW 10.4 mph - N/A   Overcast
12:55 AM 30.2 °F 20.8 °F 24.8 °F 80% 29.87 in 10.0 mi NNW 11.5 mph - N/A   Overcast
1:15 AM 30.2 °F 20.2 °F 24.8 °F 80% 29.87 in 10.0 mi NNW 12.7 mph - N/A   Overcast
1:35 AM 30.2 °F 20.8 °F 24.8 °F 80% 29.87 in 10.0 mi NNW 11.5 mph - N/A   Overcast
1:55 AM 30.2 °F 20.8 °F 24.8 °F 80% 29.88 in 10.0 mi NNW 11.5 mph - N/A   Overcast
2:15 AM 30.2 °F 21.3 °F 24.8 °F 80% 29.88 in 10.0 mi NNW 10.4 mph - N/A   Overcast
2:35 AM 30.2 °F 21.3 °F 24.8 °F 80% 29.88 in 10.0 mi NNW 10.4 mph - N/A   Overcast
2:55 AM 30.2 °F 21.9 °F 24.8 °F 80% 29.88 in 10.0 mi NNW 9.2 mph - N/A   Overcast
3:15 AM 30.2 °F 21.9 °F 24.8 °F 80% 29.87 in 10.0 mi NNW 9.2 mph - N/A   Overcast
3:35 AM 30.2 °F 23.4 °F 24.8 °F 80% 29.88 in 10.0 mi NNW 6.9 mph - N/A   Overcast
3:55 AM 30.2 °F 22.6 °F 24.8 °F 80% 29.88 in 10.0 mi NNW 8.1 mph - N/A   Overcast
4:15 AM 32.0 °F 24.2 °F 24.8 °F 75% 29.87 in 10.0 mi NNW 9.2 mph - N/A   Overcast
4:35 AM 32.0 °F 24.2 °F 24.8 °F 75% 29.87 in 10.0 mi NNW 9.2 mph - N/A   Overcast
4:55 AM 32.0 °F 24.8 °F 24.8 °F 75% 29.88 in 10.0 mi NNW 8.1 mph - N/A   Overcast
5:15 AM 32.0 °F 24.8 °F 24.8 °F 75% 29.88 in 10.0 mi NNW 8.1 mph - N/A   Overcast
5:35 AM 32.0 °F 22.5 °F 24.8 °F 75% 29.88 in 10.0 mi NNW 12.7 mph - N/A   Overcast
5:55 AM 30.2 °F 19.8 °F 24.8 °F 80% 29.89 in 10.0 mi North 13.8 mph - N/A   Overcast
6:15 AM 30.2 °F 20.8 °F 24.8 °F 80% 29.90 in 10.0 mi North 11.5 mph - N/A   Overcast
6:35 AM 30.2 °F 20.8 °F 24.8 °F 80% 29.90 in 10.0 mi NNW 11.5 mph - N/A   Overcast
6:55 AM 30.2 °F 21.3 °F 23.0 °F 75% 29.91 in 10.0 mi NNW 10.4 mph - N/A   Mostly Cloudy
7:15 AM 30.2 °F 20.2 °F 21.2 °F 69% 29.92 in 10.0 mi NNW 12.7 mph - N/A   Mostly Cloudy
7:35 AM 28.4 °F 17.5 °F 21.2 °F 74% 29.93 in 10.0 mi NNW 13.8 mph 17.3 mph N/A   Mostly Cloudy
7:55 AM 28.4 °F 17.5 °F 21.2 °F 74% 29.94 in 10.0 mi North 13.8 mph - N/A   Overcast
8:15 AM 28.4 °F 18.5 °F 21.2 °F 74% 29.95 in 10.0 mi NNW 11.5 mph - N/A   Overcast
8:35 AM 28.4 °F 17.5 °F 21.2 °F 74% 29.96 in 10.0 mi NNW 13.8 mph 18.4 mph N/A   Overcast
8:55 AM 28.4 °F 18.0 °F 21.2 °F 74% 29.97 in 10.0 mi NNW 12.7 mph - N/A   Overcast
9:15 AM 28.4 °F 18.0 °F 21.2 °F 74% 29.97 in 10.0 mi NNW 12.7 mph - N/A   Overcast
9:35 AM 30.2 °F 20.2 °F 21.2 °F 69% 29.98 in 10.0 mi NNW 12.7 mph - N/A   Overcast
9:55 AM 30.2 °F 18.5 °F 21.2 °F 69% 29.98 in 10.0 mi North 17.3 mph - N/A   Overcast
10:15 AM 30.2 °F 20.2 °F 21.2 °F 69% 29.99 in 10.0 mi NNW 12.7 mph - N/A   Mostly Cloudy
10:35 AM 30.2 °F 19.3 °F 23.0 °F 75% 30.00 in 10.0 mi North 15.0 mph - N/A   Scattered Clouds
10:55 AM 32.0 °F 21.2 °F 24.8 °F 75% 30.00 in 10.0 mi NNW 16.1 mph 21.9 mph N/A   Clear
11:15 AM 32.0 °F 20.8 °F 24.8 °F 75% 30.00 in 10.0 mi North 17.3 mph - N/A   Clear
11:35 AM 33.8 °F 23.5 °F 24.8 °F 70% 30.01 in 10.0 mi NNW 16.1 mph 19.6 mph N/A   Clear
11:55 AM 33.8 °F 22.8 °F 24.8 °F 70% 30.01 in 10.0 mi NNW 18.4 mph 24.2 mph N/A   Clear
12:15 PM 33.8 °F 22.8 °F 26.6 °F 75% 30.01 in 10.0 mi NNW 18.4 mph - N/A   Clear
12:35 PM 33.8 °F 22.8 °F 26.6 °F 75% 30.01 in 10.0 mi NNW 18.4 mph - N/A   Clear
12:55 PM 35.6 °F 25.9 °F 26.6 °F 70% 30.01 in 10.0 mi NNW 16.1 mph - N/A   Clear
1:15 PM 35.6 °F 26.2 °F 26.6 °F 70% 30.02 in 10.0 mi NNW 15.0 mph 23.0 mph N/A   Clear
1:35 PM 35.6 °F 26.6 °F 26.6 °F 70% 30.02 in 10.0 mi NNW 13.8 mph - N/A   Mostly Cloudy
1:55 PM 35.6 °F 25.9 °F 26.6 °F 70% 30.02 in 10.0 mi NNW 16.1 mph 20.7 mph N/A   Overcast
2:15 PM 35.6 °F 25.5 °F 24.8 °F 65% 30.02 in 10.0 mi North 17.3 mph 21.9 mph N/A   Overcast
2:35 PM 35.6 °F 25.5 °F 24.8 °F 65% 30.02 in 10.0 mi NNW 17.3 mph 23.0 mph N/A   Overcast
2:55 PM 35.6 °F 26.6 °F 26.6 °F 70% 30.02 in 10.0 mi NNW 13.8 mph 20.7 mph N/A   Mostly Cloudy
3:15 PM 35.6 °F 25.2 °F 26.6 °F 70% 30.02 in 10.0 mi NNW 18.4 mph 21.9 mph N/A   Mostly Cloudy
3:35 PM 35.6 °F 27.1 °F 26.6 °F 70% 30.03 in 10.0 mi North 12.7 mph - N/A   Overcast
3:55 PM 37.4 °F 28.2 °F 24.8 °F 60% 30.03 in 10.0 mi North 16.1 mph 24.2 mph N/A   Mostly Cloudy
4:15 PM 37.4 °F 28.2 °F 26.6 °F 65% 30.04 in 10.0 mi North 16.1 mph - N/A   Mostly Cloudy
4:35 PM 37.4 °F 29.3 °F 24.8 °F 60% 30.05 in 10.0 mi North 12.7 mph - N/A   Overcast
4:55 PM 37.4 °F 27.8 °F 24.8 °F 60% 30.05 in 10.0 mi NNW 17.3 mph 20.7 mph N/A   Overcast
5:15 PM 35.6 °F 27.5 °F 24.8 °F 65% 30.06 in 10.0 mi North 11.5 mph 18.4 mph N/A   Overcast
5:35 PM 35.6 °F 28.0 °F 24.8 °F 65% 30.07 in 10.0 mi North 10.4 mph 16.1 mph N/A   Overcast
5:55 PM 35.6 °F 28.6 °F 24.8 °F 65% 30.08 in 10.0 mi North 9.2 mph 18.4 mph N/A   Overcast
6:15 PM 35.6 °F 26.6 °F 24.8 °F 65% 30.08 in 10.0 mi North 13.8 mph 18.4 mph N/A   Overcast
6:35 PM 35.6 °F 28.6 °F 24.8 °F 65% 30.10 in 10.0 mi North 9.2 mph - N/A   Overcast
6:55 PM 35.6 °F 29.9 °F 24.8 °F 65% 30.11 in 10.0 mi North 6.9 mph - N/A   Overcast
7:15 PM 35.6 °F 30.7 °F 24.8 °F 65% 30.12 in 10.0 mi North 5.8 mph - N/A   Overcast
7:35 PM 35.6 °F 28.6 °F 26.6 °F 70% 30.12 in 10.0 mi North 9.2 mph - N/A   Overcast
7:55 PM 35.6 °F 26.6 °F 24.8 °F 65% 30.13 in 10.0 mi North 13.8 mph - N/A   Overcast
8:15 PM 35.6 °F 28.6 °F 24.8 °F 65% 30.13 in 10.0 mi NNW 9.2 mph - N/A   Mostly Cloudy
8:35 PM 33.8 °F 25.8 °F 24.8 °F 70% 30.14 in 10.0 mi NNW 10.4 mph - N/A   Mostly Cloudy
8:55 PM 33.8 °F 27.0 °F 24.8 °F 70% 30.14 in 10.0 mi NNW 8.1 mph - N/A   Overcast
9:15 PM 35.6 °F 29.2 °F 24.8 °F 65% 30.15 in 10.0 mi NNW 8.1 mph - N/A   Overcast
9:35 PM 33.8 °F 27.7 °F 24.8 °F 70% 30.15 in 10.0 mi NW 6.9 mph - N/A   Overcast
9:55 PM 33.8 °F 27.7 °F 24.8 °F 70% 30.16 in 10.0 mi NNW 6.9 mph - N/A   Overcast
10:15 PM 33.8 °F 27.7 °F 24.8 °F 70% 30.16 in 10.0 mi NW 6.9 mph - N/A   Overcast
10:35 PM 33.8 °F 27.7 °F 24.8 °F 70% 30.16 in 10.0 mi NW 6.9 mph - N/A   Overcast
10:55 PM 33.8 °F 28.6 °F 24.8 °F 70% 30.16 in 10.0 mi NW 5.8 mph - N/A   Overcast
11:15 PM 33.8 °F 27.7 °F 24.8 °F 70% 30.17 in 10.0 mi NW 6.9 mph - N/A   Overcast
11:35 PM 33.8 °F 27.7 °F 24.8 °F 70% 30.17 in 10.0 mi NW 6.9 mph - N/A   Overcast
11:55 PM 33.8 °F 27.7 °F 24.8 °F 70% 30.17 in 10.0 mi NW 6.9 mph - N/A   Overcast